Weather History for KBDR - May, 2014

Change the Weather History Date:

Tuesday, May 6, 2014

  Actual Average Record
Temperature  
Mean Temperature 60 °F 56 °F  
Max Temperature 68 °F 65 °F 85 °F (1986)
Min Temperature 51 °F 47 °F 38 °F (1970)
Degree Days  
Heating Degree Days 5 9  
Month to date heating degree days 34 60  
Since 1 July heating degree days 5514 5215  
Cooling Degree Days 0 0  
Month to date cooling degree days 0 0  
Year to date cooling degree days 0 2  
Growing Degree Days 10 (Base 50)    
Moisture  
Dew Point 34 °F    
Average Humidity 42    
Maximum Humidity 59    
Minimum Humidity 24    
Precipitation  
Precipitation 0.00 in 0.12 in 1.82 in (1991)
Month to date precipitation 1.50 0.70  
Year to date precipitation 19.16 14.77  
Snow  
Snow 0.00 in 0.00 in 0.00 in (2002)
Month to date snowfall 0.0 0.0  
Since 1 July snowfall 57.4 27.6  
Snow Depth 0.00 in    
Sea Level Pressure  
Sea Level Pressure 29.92 in    
Wind  
Wind Speed 9 mph (NW)    
Max Wind Speed 20 mph    
Max Gust Speed 26 mph    
Visibility 10 miles    
Events      
T = Trace of Precipitation, MM = Missing Value Source: NWS Daily Summary

Daily Weather History Graph

Daily Weather History Graph

Search for Another Location

Airport or City:

Trip Planner

Search our weather history database for the weather conditions in past years. The results will help you decide how hot, cold, wet, or windy it might be!

Date:

Astronomy

May. 06, 2014 Rise Set
Actual Time 5:44 AM EDT 7:54 PM EDT
Civil Twilight 5:13 AM EDT 8:25 PM EDT
Nautical Twilight 4:36 AM EDT 9:02 PM EDT
Astronomical Twilight 3:55 AM EDT 9:44 PM EDT
Moon 11:58 AM EDT (5/6) 1:11 AM EDT (5/6)
Length of Visible Light 15h 11m
Length of Day
14h 10m
Waxing Crescent, 46% of the Moon is Illuminated
May 6
Waxing Crescent
May 6
First Quarter
May 14
Full
May 21
Last Quarter
May 28
New

Hourly Weather History & Observations

Time (EDT) Temp. Dew Point Humidity Pressure Visibility Wind Dir Wind Speed Gust Speed Precip Events Conditions
12:52 AM 57.0 °F 35.1 °F 44% 29.88 in 10.0 mi NNW 9.2 mph - N/A   Clear
1:52 AM 53.6 °F 35.6 °F 51% 29.87 in 10.0 mi NNW 6.9 mph - N/A   Clear
2:52 AM 52.0 °F 36.0 °F 54% 29.87 in 10.0 mi North 5.8 mph - N/A   Clear
3:52 AM 52.0 °F 36.0 °F 54% 29.87 in 10.0 mi North 6.9 mph - N/A   Clear
4:52 AM 52.0 °F 37.0 °F 57% 29.88 in 10.0 mi North 5.8 mph - N/A   Clear
5:52 AM 51.1 °F 37.9 °F 61% 29.91 in 10.0 mi NNW 3.5 mph - N/A   Clear
7:52 AM 55.9 °F 37.9 °F 51% 29.93 in 10.0 mi NNW 6.9 mph - N/A   Scattered Clouds
8:52 AM 59.0 °F 37.0 °F 44% 29.93 in 10.0 mi NNW 5.8 mph - N/A   Overcast
10:52 AM 62.1 °F 37.9 °F 41% 29.93 in 10.0 mi SW 12.7 mph - N/A   Mostly Cloudy
11:52 AM 63.0 °F 39.0 °F 41% 29.91 in 10.0 mi SSW 13.8 mph - N/A   Mostly Cloudy
12:52 PM 64.0 °F 37.0 °F 37% 29.90 in 10.0 mi SW 15.0 mph - N/A   Partly Cloudy
1:52 PM 60.1 °F 39.9 °F 47% 29.90 in 10.0 mi SW 11.5 mph - N/A   Overcast
2:52 PM 64.9 °F 33.1 °F 31% 29.88 in 10.0 mi NW 10.4 mph - N/A   Overcast
3:52 PM 66.0 °F 33.1 °F 29% 29.88 in 10.0 mi NNW 12.7 mph 21.9 mph N/A   Mostly Cloudy
4:52 PM 64.9 °F 30.0 °F 27% 29.89 in 10.0 mi NW 12.7 mph 21.9 mph N/A   Mostly Cloudy
5:52 PM 64.9 °F 28.0 °F 25% 29.90 in 10.0 mi NW 17.3 mph 24.2 mph N/A   Scattered Clouds
6:52 PM 64.9 °F 27.0 °F 24% 29.92 in 10.0 mi NNW 13.8 mph - N/A   Mostly Cloudy
7:52 PM 62.1 °F 28.0 °F 28% 29.96 in 10.0 mi North 10.4 mph - N/A   Clear
8:52 PM 60.1 °F 28.0 °F 30% 30.00 in 10.0 mi NNW 6.9 mph - N/A   Clear
9:52 PM 57.0 °F 28.9 °F 34% 30.03 in 10.0 mi NNW 5.8 mph - N/A   Clear
10:52 PM 57.0 °F 28.9 °F 34% 30.04 in 10.0 mi NNW 8.1 mph - N/A   Clear
11:52 PM 55.9 °F 30.0 °F 37% 30.06 in 10.0 mi NNW 9.2 mph - N/A   Clear